User: anonymous   Login
Location: Owatonna
(44.0840°N, 93.2260°W)
Time: 15:42:15
(UTC-05:00)
Language:

ALOS - Orbit

View from above orbital plane
View from above orbital plane
View from above satellite
View from above satellite

Ground track
Ground track

The orbit data is extracted from the following two-line orbital elements,

1 28931U 06002A   17142.95816772 +.00000141 +00000-0 +36465-4 0  9995
2 28931 097.8455 171.5743 0002294 069.6673 290.4776 14.62351462603777
Epoch (UTC): 22 May 2017 22:59:45
Eccentricity: 0.0002294
inclination: 97.8455°
perigee height: 684 km
apogee height: 687 km
right ascension of ascending node: 171.5743°
argument of perigee: 69.6673°
revolutions per day: 14.62351462
mean anomaly at epoch: 290.4776°
orbit number at epoch: 60377

The dashed part of the orbit path shows where the satellite is in the earth's shadow,  

DLR